Regional Weather Roundup
Issued by NWS

Home | Current Version | Previous Version | Graphics & Text | Print | Product List | Glossary On
Versions: 1 2 3 4 5 6 7 8 9 10 11 12 13 14 15 16 17 18 19 20 21 22 23 24 25 26 27 28
000
ASUS45 KBOI 292210
RWRID

IDAHO REGIONAL WEATHER ROUNDUP
NATIONAL WEATHER SERVICE BOISE ID
400 PM MDT SUN MAY 29 2016

NOTE: "FAIR" INDICATES FEW OR NO CLOUDS BELOW 12000 FEET
WITH NO SIGNIFICANT WEATHER AND/OR OBSTRUCTIONS TO VISIBILITY

IDZ012-014-292300-
SOUTHWEST IDAHO


CITY           SKY/WX    TMP DP  RH WIND       PRES   REMARKS
BOISE          CLOUDY    82  31  15 NW12      29.95F
CALDWELL       CLOUDY    78  40  25 NW6       29.95F
MOUNTAIN HOME  PTSUNNY   85  45  24 W13       29.92F
$$

IDZ016-017-292300-
SOUTHCENTRAL IDAHO


CITY           SKY/WX    TMP DP  RH WIND       PRES   REMARKS
BURLEY         CLOUDY    73  36  25 S12       30.00S
JEROME         MOSUNNY   72  41  32 S13       30.01F
TWIN FALLS     PTSUNNY   66  46  48 N7        30.02F
$$

IDZ019>023-292300-
SOUTHEAST IDAHO


CITY           SKY/WX    TMP DP  RH WIND       PRES   REMARKS
IDAHO FALLS    MOSUNNY   74  35  24 SW14      30.03F
POCATELLO      CLOUDY    76  35  22 W7        30.02F
REXBURG        SUNNY     71  35  26 W13       30.03F
$$

IDZ006-010-011-018-031-032-292300-
CENTRAL IDAHO MOUNTAINS


CITY           SKY/WX    TMP DP  RH WIND       PRES   REMARKS
MCCALL         CLOUDY    66  29  24 S17       30.05S
HAILEY         MOSUNNY   68  36  30 SW8G17    30.06
STANLEY          N/A     61  28  28 NW13G29   30.12S
SALMON         CLOUDY    70  34  26 N5        29.94F
CHALLIS        CLOUDY    72  21  14 W13G18    29.99F
$$

IDZ002-004-006-007-026-292300-
NORTHERN IDAHO


CITY           SKY/WX    TMP DP  RH WIND       PRES   REMARKS
LEWISTON       PTSUNNY   76  46  34 VRB6      29.96F
LOWELL           N/A     75  44  33 SE6       29.91F
COEUR D`ALENE  MOSUNNY   70  41  35 SW15G22   29.94S
MULLAN PASS    PTSUNNY   52  36  54 VRB5      30.05F
$$




USA.gov is the U.S. government's official web portal to all federal, state and local government web resources and services.